Duchifat 3
1 44854U 19089C   25082.51321399  .00070338  00000-0  18061-2 0  9991
2 44854  36.9459 128.7604 0005761 249.1225 110.8912 15.38201894290953
TO-108
1 44881U 19093C   25082.82777982  .00004025  00000-0  47323-3 0  9997
2 44881  97.7966 160.1009 0015137 124.2000 236.0652 14.85333749284537
FloripaSat 1
1 44885U 19093G   25082.79241833  .00017772  00000-0  15394-2 0  9993
2 44885  97.8169 170.3039 0012316 106.8813 253.3760 14.97120301285104
RS-44
1 44909U 19096E   25082.60880325  .00000050  00000-0  14851-3 0  9997
2 44909  82.5167 279.0955 0218424 117.7890 244.5540 12.79739496244717
UPMSat 2
1 46276U 20061E   25082.72629766  .00083905  00000-0  11298-2 0  9994
2 46276  97.2536 155.0872 0001709 159.1986 200.9339 15.57568132253305
SALSAT
1 46495U 20068K   25082.84202977  .00018723  00000-0  84396-3 0  9994
2 46495  97.8545  57.3986 0014176  75.3324 284.9480 15.21002634246707
CubeSX-Sirius-HSE
1 47951U 21022V   25082.80054420  .00165798  00000-0  18984-2 0  9991
2 47951  97.4267 351.5933 0006587 177.3966 182.7327 15.61554250221589
CubeSX-HSE
1 47952U 21022W   25082.83136407  .00158782  00000-0  17786-2 0  9995
2 47952  97.4267 351.8375 0006920 171.2852 188.8527 15.62145009221602
KSU-Cubesat
1 47954U 21022Y   25080.91203790  .15245865  27065-5  42405-3 0  9991
2 47954  97.3968 355.6048 0009090 202.7483 157.3418 16.44870059221398
GRBAlpha
1 47959U 21022AD  25082.79820277  .00163121  00000-0  18456-2 0  9990
2 47959  97.4258 351.9441 0006601 176.5472 183.5833 15.61873339220420
Orbicraft-Zorkiy
1 47960U 21022AE  25082.77592970  .00505343  00000-0  22665-2 0  9999
2 47960  97.4200 355.8175 0008021 149.5326 210.6410 15.82832023221334
TUBIN
1 48900U 21059X   25082.87941911  .00068409  00000-0  11295-2 0  9992
2 48900  97.6702 246.2871 0004320 177.5352 182.5922 15.52020866207950
LEDSAT
1 49069U 21073D   25082.77978011  .00082507  00000-0  14876-2 0  9998
2 49069  97.3956 161.6893 0010488   2.8275 357.3034 15.49423966199348
CUTE
1 49263U 21088D   25081.93975513  .00038221  00000-0  85837-3 0  9991
2 49263  97.4570 156.0943 0009915 162.8578 197.3006 15.43218676192288
TeikyoSat 4
1 49396U 21102B   25082.62102885  .00005798  00000-0  38901-3 0  9999
2 49396  97.4211 123.8437 0013815  47.2928 312.9461 15.07126076184807
Z-Sat
1 49399U 21102E   25082.89403656  .00010702  00000-0  59984-3 0  9996
2 49399  97.3916 126.7456 0018674  19.0127 341.1797 15.13417903185222
KOSEN 1
1 49402U 21102H   25082.64137952  .00017541  00000-0  84409-3 0  9995
2 49402  97.3824 129.3550 0015867 357.7271   2.3888 15.18727040185455
HO-113
1 50466U 21131B   25082.83984283  .00002364  00000-0  75434-3 0  9992
2 50466  98.5086 172.5908 0004262  25.9842 334.1560 14.40654786170257
IRIS-A
1 51044U 22002BN  25082.76036968  .00180479  00000-0  16621-2 0  9999
2 51044  97.3349 159.1021 0002554 142.1377 218.0064 15.67073204177585
Foresail-1
1 52766U 22057AL  25082.36407414  .00164098  00000-0  16182-2 0  9996
2 52766  97.6009 226.4948 0006412 221.0811 138.9966 15.65390667157555
SNUGLITE 2
1 52899U 22065F   25082.86794973  .00004656  00000-0  91944-3 0  9999
2 52899  98.1542 225.6663 0007366   5.7951 354.3335 14.62877124145124
IO-117
1 53106U 22080B   25051.21822557 -.00000003  00000-0  00000+0 0  9995
2 53106  70.1434 106.3440 0008542  48.0089 312.1297  6.42557744 61200
UmKA 1 (RS40S)
1 57172U 23091G   25082.85720970  .00014606  00000-0  80548-3 0  9997
2 57172  97.5686 138.6708 0013763 238.9061 121.0821 15.13997497 95719
CubeBel-2 (EU11S)
1 57175U 23091K   25082.87307303  .00021207  00000-0  10678-2 0  9994
2 57175  97.5689 139.4056 0011618 247.6982 112.3019 15.17159334 95767
VERONIKA
1 58261U 23174F   25082.80971596  .00118188  00000-0  19903-2 0  9992
2 58261  97.4198 165.4618 0005983 310.8565  49.2167 15.51264687 76553
KAFASAT
1 58317U 23174BP  25082.83302328  .00902059  34854-3  27167-2 0  9994
2 58317  97.3998 170.2185 0010042 269.1963  90.8160 15.92180620 76896
ENSO
1 58470U 23185J   25082.84830110  .00075099  00000-0  15151-2 0  9990
2 58470  97.3816 155.9817 0006794   2.7305 357.3980 15.46240986 72985
EIRSAT-1
1 58472U 23185L   25082.88617347  .00105781  00000-0  17542-2 0  9999
2 58472  97.3799 156.9563 0005509 358.4709   1.6525 15.51746902 73056
SONATE-2
1 59112U 24043Q   25082.81427532  .00034269  00000-0  11026-2 0  9996
2 59112  97.5006 212.6768 0011526  34.1641 326.0340 15.32093564 58417
MO-122
1 60209U 24125G   25082.84367632  .00034617  00000-0  10982-2 0  9990
2 60209  97.2911 295.4658 0021432  58.6437 301.6898 15.32378874 40032
GRBBeta
1 60237U 24128C   25082.85601740  .00012973  00000-0  98802-3 0  9995
2 60237  61.9942 350.3747 0044611  40.6283 319.8122 15.01607735 38528
Curium One
1 60242U 24128H   25082.87228372  .00021204  00000-0  15293-2 0  9998
2 60242  61.9839 349.6179 0044409  36.1152 324.2924 15.03379055 38544
ROBUSTA-3A
1 60243U 24128J   25082.85305043  .00022201  00000-0  16185-2 0  9997
2 60243  61.9910 350.2727 0042794  33.9778 326.4040 15.03010724 38533
CatSat
1 60246U 24125J   25082.57333555  .00020529  00000-0  72444-3 0  9997
2 60246  97.2692 295.2234 0044595  14.1487 346.0990 15.28300972 38069
HYPERVIEW-1G (RS66S)
1 61772U 24199AP  25082.90218257  .00041225  00000-0  13586-2 0  9998
2 61772  97.3673 312.0781 0016455 109.2393 251.0630 15.31212111 65051
AO-123
1 61781U 24199AY  25082.89776230  .00016921  00000-0  64125-3 0  9997
2 61781  97.3679 311.6436 0017989 111.1407 249.1756 15.26808053 65024
ZIMSAT 2
1 61783U 24199BA  25082.89215793  .00058402  00000-0  17702-2 0  9999
2 61783  97.3664 312.2359 0017291 108.3307 251.9818 15.33785205 68219
POEM 4 (BGS ARPIT)
1 62461U 24253C   25082.69908367  .00655757  21967-3  94394-3 0  9995
2 62461  55.2106 217.2645 0002058 331.7239  28.3709 16.04891524 13137
HADES-R (SO-124)
1 62690U 25009CK  25082.18293529  .00084878  00000-0  36945-2 0  9999
2 62690  97.4143 163.6590 0001544 358.4585   1.6646 15.21874659 10197
HYDRA-T
1 62692U 25009CM  25082.17842104  .00084733  00000-0  36727-2 0  9997
2 62692  97.4134 163.6637 0001389 349.3512  10.7694 15.22019164 10194
